Location: Hermaringen
(48.5952°N, 10.2585°E)
Time: 21:18:14
(UTC+00:00)

ATLAS 2AS CENTAUR R/B - Pass Details

Date: 18 November 2025
Orbit: 1047 x 1163 km, 63.7° (Epoch: 10 December)

Event Time Altitude Azimuth Distance (km) Brightness Sun altitude
Rises 19:22:12 0° 317° (NW) 3,842 6.3 -37.1°
Reaches altitude 10° 19:24:52 10° 314° (NW) 2,876 5.5 -37.5°
Enters shadow 19:29:41 45° 289° (WNW) 1,393 3.5 -38.3°
